Location: A�t Lahcen
(32.8243°N, 5.4246°W)
Time: 02:01:39
(UTC+00:00)

Cosmos 1241 Rocket - Pass Details

Date: 27 January 2021
Orbit: 928 x 1020 km, 65.8° (Epoch: 27 February)

Event Time Altitude Azimuth Distance (km) Brightness Sun altitude
Exits shadow 05:34:59 32° 318° (NW) 1,652 5.3 -22.1°
Maximum altitude 05:38:06 66° 247° (WSW) 1,093 4.5 -21.4°
Drops below altitude 10° 05:44:28 10° 166° (SSE) 2,741 7.1 -20.1°
Sets 05:47:01 0° 164° (SSE) 3,673 7.9 -19.6°
